Back to catalog

DELTA 1 DEB

AliveSSO
NORAD 7164·DEBRIS·🇺🇸 United States

Launched Nov 6, 1973 from Vandenberg Space Force Base

Loading…

Next Passes (next 24 hours)

TLE

FreshSource: Space-Track

Epoch: Sep 14, 2026, 07:21 UTC

1 07164U 73086EC  26257.30671390  .00000338  00000-0  17346-2 0  9990
2 07164 101.0617 285.4217 0087208  45.1997  18.0251 12.76436362450124

Track DELTA 1 DEB in real time with AllMySat

Download on the App Store